AirNav   Phillips 66 Aviation Fuel
 
 1004 users online  

NC18 Rat Landing Seaplane Base
Ahoskie, North Carolina, USA


FAA INFORMATION EFFECTIVE 01 FEBRUARY 2018

Location

FAA Identifier: NC18
Lat/Long: 36-23-22.0000N / 076-54-41.0000W
36-23.366667N / 076-54.683333W
36.3894444 / -76.9113889
(estimated)
Elevation: 14 ft. / 4 m (estimated)
From city: 7 miles NE of AHOSKIE, NC
Time zone: UTC -5 (UTC -4 during Daylight Saving Time)
Zip code: 27986

Seaplane Base Operations

Seaplane Base use: Private use. Permission required prior to landing
Activation date: 12/2010
Control tower: no
ARTCC: WASHINGTON CENTER
FSS: RALEIGH FLIGHT SERVICE STATION
Attendance: UNATNDD
Segmented circle: no

Seaplane Base Communications

WX AWOS-3 at ASJ (14 nm SW): 119.075 (252-345-2967)
WX AWOS-3PT at FKN (19 nm N): 124.675 (757-562-8765)

Nearby radio navigation aids

VOR radial/distance  VOR name  Freq  Var
CVIr306/2.2COFIELD VORTAC114.6009W
FKNr175/20.1FRANKLIN VORTAC110.6009W
ECGr290/36.4ELIZABETH CITY VOR/DME112.5007W

 
NDB name  Hdg/Dist  Freq  Var  ID
EMPORIA129/28.326110WELQ . .-.. --.-
WOODVILLE294/30.625410WLLW .-.. .-.. .--
WAKEFIELD184/35.927411WAKQ .- -.- --.-

Seaplane Base Services

Fuel available: 100LL

Runway Information

Runway 12W/30W

Dimensions: 7300 x 500 ft. / 2225 x 152 m
Surface: water
RUNWAY 12W  RUNWAY 30W
Traffic pattern: leftleft

Seaplane Base Ownership and Management from official FAA records

Ownership: Privately-owned
Owner: HENRY JOYNER
327B TUSCARORA RD
WINTON, NC 27986
Phone 252-395-0822
Manager: HENRY JOYNER
327B TUSCARORA RD
WINTON, NC 27986
Phone 252-395-0822

Seaplane Base Operational Statistics

Aircraft based on the field: 1
Single engine airplanes: 1
    

Instrument Procedures

There are no published instrument procedures at NC18.

Some nearby airports with instrument procedures:

KASJ - Tri-County Airport (14 nm SW)
KFKN - Franklin Municipal-John Beverly Rose Airport (19 nm N)
KSFQ - Suffolk Executive Airport (23 nm NE)
KEDE - Northeastern Regional Airport (27 nm SE)
KPVG - Hampton Roads Executive Airport (32 nm NE)
 
Loc | Ops | Rwys | IFR | FBO | Links
Com | Nav | Svcs | Stats | Notes

AirNav Hotels Sweepstakes
 
Aerial photo
No photo
 
Sectional chart

 
Airport distance calculator
Flying to Rat Landing Seaplane Base? Find the distance to fly.

From to NC18

Sunrise and sunset
Times for 21-Feb-2018
 Local
(UTC-5)
 Zulu
(UTC)
Morning civil twilight06:2311:23
Sunrise06:4911:49
Sunset17:5322:53
Evening civil twilight18:1923:19

Current date and time
Zulu (UTC)  22-Feb-2018 01:09:32
Local (UTC-5)  21-Feb-2018 20:09:32
 
METAR
KASJ 
14nm SW 
220055Z AUTO 00000KT 10SM CLR 17/17 A3040 RMK AO2 T01650165
KFKN 
19nm N 
220055Z AUTO 00000KT 4SM BR CLR 16/16 A3040 RMK AO2 T01590156
KSFQ 
23nm NE 
220055Z AUTO 00000KT 10SM CLR 17/17 A3041 RMK AO2 T01740172
TAF
KECG 
36nm E 
211907Z 2119/2218 22012G18KT P6SM SCT035 FM212200 19007KT P6SM SCT150 FM220900 21006KT P6SM FEW020
KNGU 
44nm NE 
2123/2223 21007KT 9999 SCT035 QNH3035INS FM220900 21007KT 8000 BR SCT012 BKN020 BKN070 QNH3039INS TEMPO 2211/2213 3200 BR SCT010 OVC020 FM221300 22009KT 6000 BR BKN008 BKN020 QNH3039INS FM221930 VRB05KT 9999 SCT015 BKN028 BKN070 QNH3033INS T16/2212Z T24/2220Z FN20000
NOTAMs
Click for the latest NOTAMs
NOTAMs are issued by the DoD/FAA and will open in a separate window not controlled by AirNav.

 

 
 

Would you like to see your business listed on this page?

 If your business provides an interesting product or service to pilots, flight crews, aircraft, or users of the Rat Landing Seaplane Base, you should consider listing it here.  To start the listing process, click on the button below
 
Add a business
 

Other Pages about Rat Landing Seaplane Base

Update a link
 
Copyright © AirNav, LLC. All rights reserved. Privacy Policy  Contact